Previsão horária em 2-e Itkulovo

Hoje, 14 Abril, Quarta-feira

Tempo Temperatura Precipitação Vento Pressão Humidade
00:00 +4°C° 0 mm 1 m/s 727 mmHg 95%
01:00 +3°C° 0 mm 1 m/s 727 mmHg 96%
02:00 +3°C° 0 mm 1 m/s 727 mmHg 96%
03:00 +3°C° 0 mm 1 m/s 727 mmHg 96%
04:00 +1°C° 0 mm 1 m/s 727 mmHg 98%
05:00 +2°C° 0 mm 1 m/s 726 mmHg 98%
06:00 +2°C° 0 mm 1 m/s 726 mmHg 98%
07:00 +3°C° 0 mm 1 m/s 726 mmHg 98%
08:00 +4°C° 0 mm 1 m/s 726 mmHg 95%
09:00 +5°C° 0 mm 1 m/s 726 mmHg 93%
10:00 +6°C° 0 mm 1 m/s 726 mmHg 90%
11:00 +7°C° 0 mm 1 m/s 725 mmHg 87%
12:00 +7°C° 0 mm 2 m/s 725 mmHg 83%
13:00 +9°C° 0 mm 2 m/s 725 mmHg 80%
14:00 +9°C° 0 mm 2 m/s 725 mmHg 76%
15:00 +10°C° 0 mm 2 m/s 724 mmHg 71%
16:00 +12°C° 0 mm 2 m/s 724 mmHg 68%
17:00 +10°C° 0 mm 2 m/s 723 mmHg 70%
18:00 +8°C° 0 mm 2 m/s 723 mmHg 72%
19:00 +7°C° 0 mm 1 m/s 723 mmHg 74%
20:00 +6°C° 0 mm 1 m/s 723 mmHg 74%
21:00 +5°C° 0 mm 1 m/s 723 mmHg 75%
22:00 +5°C° 0 mm 1 m/s 723 mmHg 75%
23:00 +4°C° 0 mm 1 m/s 723 mmHg 74%

Amanhã, 15 Abril, Quinta-feira

Tempo Temperatura Precipitação Vento Pressão Humidade
00:00 +4°C° 0 mm 1 m/s 722 mmHg 73%
01:00 +2°C° 0 mm 0 m/s 722 mmHg 72%
02:00 +2°C° 0 mm 0 m/s 722 mmHg 73%
03:00 +2°C° 0 mm 0 m/s 722 mmHg 73%
04:00 +2°C° 0 mm 0 m/s 722 mmHg 74%
05:00 +3°C° 0 mm 0 m/s 722 mmHg 72%
06:00 +4°C° 0 mm 0 m/s 722 mmHg 70%
07:00 +6°C° 0 mm 0 m/s 722 mmHg 67%
08:00 +9°C° 0 mm 1 m/s 721 mmHg 62%
09:00 +11°C° 0 mm 1 m/s 721 mmHg 56%
10:00 +13°C° 0 mm 1 m/s 721 mmHg 50%
11:00 +14°C° 0 mm 2 m/s 721 mmHg 47%
12:00 +15°C° 0 mm 2 m/s 721 mmHg 44%
13:00 +16°C° 0 mm 2 m/s 720 mmHg 40%
14:00 +16°C° 0 mm 2 m/s 720 mmHg 40%
15:00 +16°C° 0 mm 2 m/s 720 mmHg 40%
16:00 +16°C° 0 mm 2 m/s 719 mmHg 40%
17:00 +14°C° 0 mm 2 m/s 719 mmHg 48%
18:00 +12°C° 0 mm 1 m/s 718 mmHg 56%
19:00 +10°C° 0 mm 1 m/s 718 mmHg 63%
20:00 +9°C° 0 mm 1 m/s 718 mmHg 64%
21:00 +8°C° 0 mm 1 m/s 718 mmHg 65%
22:00 +7°C° 0 mm 0 m/s 718 mmHg 66%
23:00 +6°C° 0 mm 0 m/s 717 mmHg 65%

Depois de amanhã, 16 Abril, Sexta-feira

Tempo Temperatura Precipitação Vento Pressão Humidade
00:00 +6°C° 0 mm 0 m/s 717 mmHg 65%
01:00 +6°C° 0 mm 0 m/s 717 mmHg 65%
02:00 +5°C° 0 mm 0 m/s 717 mmHg 65%
03:00 +5°C° 0 mm 0 m/s 716 mmHg 66%
04:00 +5°C° 0 mm 0 m/s 716 mmHg 66%
05:00 +6°C° 0 mm 0 m/s 716 mmHg 64%
06:00 +6°C° 0 mm 0 m/s 716 mmHg 63%
07:00 +7°C° 0 mm 0 m/s 716 mmHg 61%
08:00 +9°C° 0 mm 0 m/s 716 mmHg 54%
09:00 +12°C° 0 mm 1 m/s 716 mmHg 48%
10:00 +14°C° 0 mm 1 m/s 716 mmHg 41%
11:00 +15°C° 0 mm 1 m/s 716 mmHg 38%
12:00 +16°C° 0 mm 1 m/s 716 mmHg 35%
13:00 +18°C° 0 mm 1 m/s 716 mmHg 32%
14:00 +18°C° 0 mm 1 m/s 716 mmHg 32%
15:00 +18°C° 0 mm 1 m/s 716 mmHg 32%
16:00 +18°C° 0 mm 1 m/s 716 mmHg 31%
17:00 +16°C° 0 mm 2 m/s 716 mmHg 39%
18:00 +14°C° 0 mm 2 m/s 716 mmHg 46%
19:00 +12°C° 0 mm 2 m/s 716 mmHg 53%
20:00 +10°C° 0 mm 2 m/s 716 mmHg 59%
21:00 +9°C° 0 mm 2 m/s 716 mmHg 65%
22:00 +8°C° 0 mm 3 m/s 716 mmHg 71%
23:00 +8°C° 0 mm 3 m/s 716 mmHg 78%

17 Abril, Sábado

Tempo Temperatura Precipitação Vento Pressão Humidade
00:00 +7°C° 0 mm 3 m/s 716 mmHg 85%
01:00 +7°C° 0 mm 3 m/s 716 mmHg 92%
02:00 +5°C° 0 mm 3 m/s 716 mmHg 93%
03:00 +6°C° 0 mm 2 m/s 716 mmHg 93%
04:00 +5°C° 0 mm 2 m/s 716 mmHg 94%
05:00 +6°C° 0 mm 2 m/s 716 mmHg 92%
06:00 +6°C° 0 mm 2 m/s 717 mmHg 90%
07:00 +6°C° 0 mm 2 m/s 717 mmHg 88%
08:00 +8°C° 0 mm 2 m/s 717 mmHg 81%
09:00 +9°C° 0 mm 2 m/s 717 mmHg 74%
10:00 +10°C° 0 mm 2 m/s 717 mmHg 67%
11:00 +12°C° 0 mm 2 m/s 716 mmHg 62%
12:00 +13°C° 0 mm 2 m/s 716 mmHg 58%
13:00 +14°C° 0 mm 2 m/s 716 mmHg 54%
14:00 +14°C° 0 mm 2 m/s 716 mmHg 53%
15:00 +13°C° 0 mm 3 m/s 716 mmHg 53%
16:00 +13°C° 0 mm 3 m/s 716 mmHg 53%
17:00 +12°C° 0 mm 3 m/s 716 mmHg 59%
18:00 +12°C° 0 mm 2 m/s 716 mmHg 66%
19:00 +10°C° 0 mm 2 m/s 715 mmHg 73%
20:00 +9°C° 0 mm 2 m/s 715 mmHg 77%
21:00 +9°C° 0 mm 1 m/s 715 mmHg 82%
22:00 +8°C° 0 mm 1 m/s 715 mmHg 87%
23:00 +7°C° 0 mm 1 m/s 715 mmHg 88%

18 Abril, Domingo

Tempo Temperatura Precipitação Vento Pressão Humidade
00:00 +7°C° 0 mm 1 m/s 715 mmHg 90%
01:00 +5°C° 0 mm 0 m/s 715 mmHg 92%
02:00 +5°C° 0 mm 0 m/s 714 mmHg 92%
03:00 +5°C° 0 mm 0 m/s 714 mmHg 92%
04:00 +5°C° 0 mm 0 m/s 714 mmHg 92%
05:00 +5°C° 0 mm 0 m/s 714 mmHg 90%
06:00 +7°C° 0 mm 1 m/s 714 mmHg 89%
07:00 +7°C° 0 mm 1 m/s 714 mmHg 87%
08:00 +8°C° 0 mm 1 m/s 714 mmHg 82%
09:00 +8°C° 0 mm 2 m/s 714 mmHg 77%
10:00 +8°C° 0 mm 2 m/s 714 mmHg 72%
11:00 +9°C° 0 mm 2 m/s 714 mmHg 65%
12:00 +9°C° 0 mm 2 m/s 714 mmHg 58%
13:00 +10°C° 0 mm 3 m/s 714 mmHg 52%
14:00 +10°C° 0 mm 3 m/s 714 mmHg 48%
15:00 +10°C° 0 mm 3 m/s 714 mmHg 45%
16:00 +11°C° 0 mm 4 m/s 714 mmHg 42%
17:00 +7°C° 0.1 mm 5 m/s 714 mmHg 58%
18:00 +5°C° 0.1 mm 5 m/s 715 mmHg 73%
19:00 +1°C° 0.1 mm 6 m/s 716 mmHg 89%
20:00 -1°C° 0 mm 7 m/s 716 mmHg 79%
21:00 -2°C° 0 mm 7 m/s 717 mmHg 69%
22:00 -2°C° 0 mm 7 m/s 717 mmHg 59%
23:00 -3°C° 0 mm 7 m/s 718 mmHg 57%

19 Abril, Segunda-feira

Tempo Temperatura Precipitação Vento Pressão Humidade
00:00 -4°C° 0 mm 7 m/s 718 mmHg 56%
01:00 -6°C° 0 mm 7 m/s 719 mmHg 55%
02:00 -5°C° 0 mm 6 m/s 719 mmHg 55%
03:00 -6°C° 0 mm 6 m/s 720 mmHg 54%
04:00 -6°C° 0 mm 6 m/s 720 mmHg 54%
05:00 -6°C° 0 mm 6 m/s 721 mmHg 50%
06:00 -6°C° 0 mm 6 m/s 721 mmHg 45%
07:00 -7°C° 0 mm 7 m/s 721 mmHg 41%
08:00 -6°C° 0 mm 7 m/s 722 mmHg 38%
09:00 -6°C° 0 mm 7 m/s 722 mmHg 34%
10:00 -4°C° 0 mm 7 m/s 722 mmHg 31%
11:00 -3°C° 0 mm 7 m/s 722 mmHg 30%
12:00 -3°C° 0 mm 7 m/s 722 mmHg 29%
13:00 -2°C° 0 mm 7 m/s 722 mmHg 29%
14:00 -2°C° 0 mm 7 m/s 723 mmHg 29%
15:00 -2°C° 0 mm 6 m/s 723 mmHg 30%
16:00 -2°C° 0 mm 6 m/s 723 mmHg 30%
17:00 -3°C° 0 mm 6 m/s 723 mmHg 33%
18:00 -4°C° 0 mm 5 m/s 723 mmHg 36%
19:00 -5°C° 0 mm 5 m/s 724 mmHg 39%
20:00 -4°C° 0 mm 4 m/s 724 mmHg 41%
21:00 -5°C° 0 mm 4 m/s 724 mmHg 43%
22:00 -7°C° 0 mm 4 m/s 725 mmHg 45%
23:00 -6°C° 0 mm 3 m/s 725 mmHg 45%
Mostrar mais

Necessitamos do seu Consentimento

A Meteoprog e os seus Fornecedores de Serviços podem armazenar e aceder a dados pessoais como cookies, identificadores do dispositivo ou outras tecnologias semelhantes existentes no seu dispositivo e processar estes dados para personalizar conteúdos e anúncios, assim como funcionalidades nas redes sociais e análise de tráfego.

  • Armazenar e/ou aceder a informações no seu dispositivo

    Os cookies, identificadores do dispositivo ou outras informações podem ser armazenados ou acedidos no seu dispositivo, para os fins acima indicados.

  • Anúncios e conteúdos personalizados, medição de anúncios e conteúdos, dados sobre o público-alvo e desenvolvimento de produtos

    Os anúncios e os conteúdos podem ser personalizados com base num perfil. Podem ser adicionados dados adicionais para uma maior personalização dos anúncios e dos conteúdos. A eficácia dos anúncios e dos conteúdos pode ser medida. Podem ser obtidas informações sobre o público que visualizou os anúncios e os conteúdos. Estes dados podem ser usados para desenvolver ou melhorar sistemas, softwares ou a experiência do utilizador.

Ao clicar em "Eu concordo”, permitirá o uso de cookies, identificadores do dispositivo e web beacons mencionados ou outras tecnologias semelhantes. As configurações do navegador do seu dispositivo podem ser alteradas.

Para certos fins, podem ser invocados interesses legítimos ao invés de consentimento. Pode ler mais informação sobre este assunto na nossa Política de Privacidade e Cookies.